Location: DARK SKY Beskydy - Park tmavé oblohy, www.darkskybeskydy.cz
(49.4926°N, 18.5016°E)
Time: 11:05:30
(UTC+02:00)

Transit 4A - Pass Details

Date: 27 February 2024
Orbit: 871 x 971 km, 66.8° (Epoch: 24 April)

Event Time Altitude Azimuth Distance (km) Brightness Sun altitude
Exits shadow 05:18:46 - 315° (NW) 3,038 10.2 -13.0°
Reaches altitude 10° 05:20:46 10° 329° (NNW) 2,582 9.9 -12.7°
Maximum altitude 05:23:59 15° 2° (N) 2,249 10.0 -12.1°
Drops below altitude 10° 05:27:10 10° 35° (NE) 2,552 10.7 -11.6°
Sets 05:30:56 0° 60° (ENE) 3,477 12.0 -11.0°
